P/L 153 DEB, 19245

Orbit data source: Space-Track

P/L 153 DEB, 19245 is space debris in LEO originally from a launch on Wed, 31 May 1967 UTC launched from the Air Force Western Test Range (AFWTR). Debris objects in space refer to the collection of defunct objects orbiting the Earth. Examples of debris include non-operational satellites, rocket bodies, and fragments generated from explosions, collisions, or faulty payload assembly.

Loading next visibility...
P/L 153 DEB details
Identifier
19245, 1967-053K
Orbit
LEO
Last TLE update20 hours ago
Origin
Flag of USNRL (US)
ManufacturerUnknown
MissionSpacecraft
Bus & MotorUnknown
MassUnknown
Launch date (UTC)
1967-05-31 (58 years ago)
Launch vehicleUnknown
Launch site
Air Force Western Test Range (AFWTR)
Object type
Payload
Rocket body
Debris
Shape & HBRUnknown
Radar Cross SectionSmall (<0.1 m²)

Expand to show TLE details & history

TLE from 20 hours ago
0 P/L 153 DEB
1 19245U 67053K   24355.77577359  .00001561  00000-0  73451-3 0  9997
2 19245  69.9571 114.1486 0003622 201.7404 315.1356 14.21781362953293
Epoch: 2024-12-20T18:37Z
Definitive object data (Epoch: 2024-12-20T18:37:06.838Z)
Latitude21.70044°
Longitude-83.26961°
Altitude819.564 km
Speed7.446 km/s
True Right ascension19h 03m 22s
True Declination21° 35' 01"
Sunlit
Object was in daylight at TLE epoch
Visualization TLE readout
Latitude63.15718°
Longitude148.99697°
Altitude831.21 km
Speed7.443 km/s
Apparent Right ascension04h 17m 35s
Apparent Declination34° 08' 39"
Sunlit
Object is in full shadow
Visualization observer readout
Local Sidereal Time13:30:57
Azimuth326.376° NNW
Elevation-6.551°
Doppler factor1
Orbital elements
Apogee altitude819.964 km
Perigee altitude814.752 km
Semi-major axis7,195.495 km
Eccentricity0.0003622
Inclination69.9571°
RAAN114.1486°
Arg. of periapsis201.7404°
True anomaly315.10631°
Mean anomaly315.1356°
Eccentric anomaly315.12096°
Mean motion3.55592 °/min
BSTAR0.00073451
Orbital period101.24 mins
Loading maneuver chart data...
Loading historical data...
Loading historical data...
Loading historical data...
Loading historical data...
Loading historical data...
Loading historical data...
Loading historical data...

P/L 153 DEB Visibility forecast

Observer location: undefined°, undefined

Span
Click to sort rows by Start time (UTC) header in descending order
Start Az.
Max El. time (UTC)
Max El. Az.
Max El.
End time (UTC)
End Az.
8 mins2024-12-21 18:03:49.267Z359.632° N2024-12-21 18:07:49.267Z50.373° ENE24.58°2024-12-21 18:11:49.267Z106.402° ESE
9 mins2024-12-21 19:47:49.267Z316.615° NNW2024-12-21 19:51:49.267Z253.744° W33.801°2024-12-21 19:56:49.267Z183.964° SSW
8 mins2024-12-22 08:50:49.267Z173.653° S2024-12-22 08:54:49.267Z98.416° ESE35.832°2024-12-22 08:58:49.267Z40.017° NE
7 mins2024-12-22 10:35:49.267Z267.572° W2024-12-22 10:38:49.267Z313.184° NW22.907°2024-12-22 10:42:49.267Z0.565° NNE
|